sat.trackr.live / text

‹ back to catalog

COSMOS 2538

NORAD 44424 · 2019-039D

PAYLOAD ACTIVE UNKNOWN

§ Identity

Operator
Country
CIS
Launch date
2019-07-10
Launch site
PLMSC
Launch vehicle
Mass (kg)
RCS (m²)

External: N2YO · Heavens-Above · Gunter

§ Orbital elements

Epoch: 2026-09-20T05:24:45.957888Z

Period
94.64 min
Inclination
97.5817°
Eccentricity
0.0042577
Mean motion
15.21608936 rev/d
Perigee alt
471.7 km
Apogee alt
530.3 km
Semi-major
6,879.1 km
B*
1.7243e-4
RAAN
343.3046°
Arg perigee
74.0002°
Mean anomaly
286.5917°
Rev number
39,435

§ Raw data

COSMOS 25381 44424U 19039D   26263.22553192  .00003914  00000+0  17243-3 0  99942 44424  97.5817 343.3046 0042577  74.0002 286.5917 15.21608936394351

JSON: /api/v1/satellites/44424 · /tle

For live sub-satellite position, see the globe view (requires WebGL).

§ Visibility from observer

Set your observer location to see the next 7 days of passes ≥ 10°. The values pass through the URL so the page stays shareable.

No JS? Fill the form by hand. The geolocation button needs JavaScript.